Rochester/St. Mary\'s Hospita, MN

10:10 PM CST on February 21, 2018 (GMT -0600)
Rochester/St. Mary\'s Hospita

Weather History for K9MN - April, 2014

Change the Weather History Date:

Friday, April 4, 2014

  Actual Average (KRST) Record (KRST)
Temperature  
Mean Temperature 31 °F -  
Max Temperature 37 °F 48 °F 77 °F (1942)
Min Temperature 25 °F 29 °F 6 °F (1995)
Degree Days  
Heating Degree Days 34    
Moisture  
Dew Point 27 °F    
Average Humidity 82    
Maximum Humidity 99    
Minimum Humidity 58    
Precipitation  
Precipitation 0.07 in - - ()
Sea Level Pressure  
Sea Level Pressure 29.78 in    
Wind  
Wind Speed 11 mph (NW)    
Max Wind Speed 25 mph    
Max Gust Speed 37 mph    
Visibility 8 miles    
Events      
Averages and records for this station are not official NWS values.
T = Trace of Precipitation, MM = Missing Value Source: NWS Daily Summary

Daily Weather History Graph

Daily Weather History Graph

Search for Another Location

Airport or City:

Trip Planner

Search our weather history database for the weather conditions in past years. The results will help you decide how hot, cold, wet, or windy it might be!

Date:

Astronomy

Apr. 04, 2014 Rise Set
Actual Time 6:45 AM CDT 7:40 PM CDT
Civil Twilight 6:16 AM CDT 8:10 PM CDT
Nautical Twilight 5:41 AM CDT 8:45 PM CDT
Astronomical Twilight 5:05 AM CDT 9:21 PM CDT
Moon 9:55 AM CDT (4/4) 12:06 AM CDT (4/4)
Length of Visible Light 13h 53m
Length of Day
12h 54m
Waxing Crescent, 25% of the Moon is Illuminated
Apr 4
Waxing Crescent
Apr 7
First Quarter
Apr 15
Full
Apr 22
Last Quarter
Apr 29
New

Hourly Weather History & Observations

Time (CDT) Temp. Windchill Dew Point Humidity Pressure Visibility Wind Dir Wind Speed Gust Speed Precip Events Conditions
12:13 AM 32.0 °F 25.6 °F 30.7 °F 95% 29.67 in 10.0 mi NNE 6.9 mph - N/A   Overcast
12:32 AM 31.8 °F 26.2 °F 30.4 °F 94% 29.65 in 10.0 mi NNE 5.8 mph - N/A   Overcast
12:52 AM 31.6 °F 25.1 °F 30.2 °F 94% 29.62 in 10.0 mi NNE 6.9 mph - N/A   Overcast
1:13 AM 31.6 °F 25.1 °F 30.2 °F 94% 29.61 in 10.0 mi NNE 6.9 mph - N/A   Overcast
1:32 AM 31.5 °F 24.9 °F 30.0 °F 94% 29.62 in 10.0 mi NNE 6.9 mph - N/A   Overcast
1:52 AM 31.1 °F 26.4 °F 29.8 °F 95% 29.62 in 10.0 mi NNE 4.6 mph - N/A   Overcast
2:13 AM 31.6 °F 26.0 °F 30.0 °F 94% 29.62 in 10.0 mi North 5.8 mph - N/A   Overcast
2:32 AM 31.6 °F 26.0 °F 30.0 °F 94% 29.62 in 10.0 mi North 5.8 mph - N/A   Overcast
2:53 AM 31.3 °F 25.6 °F 29.8 °F 94% 29.62 in 10.0 mi NE 5.8 mph - N/A   Overcast
3:13 AM 31.6 °F - 30.0 °F 94% 29.62 in 2.0 mi Calm Calm - N/A   Overcast
3:32 AM 31.1 °F 26.4 °F 30.2 °F 96% 29.61 in 0.8 mi NW 4.6 mph - 0.01 in   Overcast
3:53 AM 30.7 °F 26.0 °F 29.8 °F 96% 29.60 in 1.2 mi NW 4.6 mph - 0.02 in   Overcast
4:13 AM 30.7 °F 26.0 °F 30.0 °F 97% 29.60 in 0.5 mi NW 4.6 mph - 0.02 in   Overcast
4:32 AM 30.6 °F 24.7 °F 30.0 °F 98% 29.59 in 1.0 mi NW 5.8 mph - 0.03 in   Overcast
4:53 AM 30.4 °F 22.9 °F 29.8 °F 98% 29.58 in 3.0 mi NW 8.1 mph - 0.04 in   Overcast
5:13 AM 30.2 °F 20.8 °F 29.7 °F 98% 29.59 in 5.0 mi NW 11.5 mph 16.1 mph N/A   Overcast
5:32 AM 29.3 °F 20.2 °F 28.9 °F 99% 29.59 in 4.0 mi NW 10.4 mph 17.3 mph N/A   Overcast
5:53 AM 28.9 °F 19.2 °F 28.2 °F 97% 29.60 in 1.8 mi NW 11.5 mph 20.7 mph N/A   Overcast
6:12 AM 28.4 °F 16.6 °F 27.5 °F 96% 29.61 in 1.8 mi NW 16.1 mph 24.2 mph N/A   Overcast
7:12 AM 26.6 °F 14.7 °F 25.3 °F 95% 29.64 in 1.2 mi NW 15.0 mph 28.8 mph N/A   Overcast
7:33 AM 25.9 °F 14.8 °F 24.6 °F 95% 29.65 in - NW 12.7 mph 24.2 mph N/A   Overcast
7:53 AM 25.7 °F 14.6 °F 24.6 °F 96% 29.65 in - NW 12.7 mph 20.7 mph N/A   Overcast
8:12 AM 25.7 °F 13.5 °F 24.8 °F 96% 29.66 in - WNW 15.0 mph 23.0 mph N/A   Overcast
8:33 AM 25.9 °F 14.8 °F 24.8 °F 96% 29.66 in - NW 12.7 mph 20.7 mph N/A   Overcast
8:52 AM 26.1 °F 15.0 °F 25.2 °F 96% 29.67 in - WNW 12.7 mph 21.9 mph 0.01 in   Overcast
9:13 AM 26.6 °F 14.7 °F 25.7 °F 96% 29.67 in - WNW 15.0 mph 19.6 mph N/A   Overcast
9:33 AM 26.6 °F 15.7 °F 25.7 °F 96% 29.67 in - NW 12.7 mph 23.0 mph N/A   Overcast
9:52 AM 27.3 °F 16.6 °F 26.1 °F 95% 29.69 in - WNW 12.7 mph 25.3 mph N/A   Overcast
10:13 AM 28.2 °F 14.5 °F 26.6 °F 94% 29.69 in - WNW 21.9 mph 28.8 mph N/A   Overcast
10:33 AM 28.4 °F 15.8 °F 26.2 °F 92% 29.71 in 3.0 mi WNW 18.4 mph 35.7 mph N/A   Overcast
10:52 AM 29.1 °F 17.5 °F 26.2 °F 89% 29.72 in 5.0 mi WNW 16.1 mph 27.6 mph N/A   Overcast
11:13 AM 29.3 °F 17.3 °F 26.1 °F 88% 29.73 in 7.0 mi WNW 17.3 mph 32.2 mph N/A   Overcast
11:33 AM 29.7 °F 17.8 °F 26.2 °F 87% 29.74 in 7.0 mi WNW 17.3 mph 27.6 mph N/A   Overcast
11:52 AM 29.8 °F 18.0 °F 26.1 °F 86% 29.75 in 10.0 mi NW 17.3 mph 29.9 mph N/A   Overcast
12:13 PM 30.2 °F 19.3 °F 26.1 °F 85% 29.75 in 10.0 mi NW 15.0 mph 33.4 mph N/A   Overcast
12:32 PM 30.2 °F 19.8 °F 25.3 °F 82% 29.77 in 10.0 mi WNW 13.8 mph 29.9 mph N/A   Overcast
12:52 PM 30.7 °F 18.8 °F 25.3 °F 80% 29.77 in 10.0 mi NW 18.4 mph 31.1 mph N/A   Overcast
1:13 PM 31.1 °F 18.9 °F 24.8 °F 77% 29.78 in 10.0 mi WNW 19.6 mph 27.6 mph N/A   Overcast
1:52 PM 32.2 °F 22.3 °F 25.2 °F 75% 29.80 in 10.0 mi WNW 13.8 mph 32.2 mph N/A   Overcast
2:13 PM 33.1 °F 20.6 °F 25.2 °F 73% 29.81 in 10.0 mi WNW 23.0 mph 32.2 mph N/A   Overcast
2:32 PM 32.9 °F 21.0 °F 25.0 °F 73% 29.82 in 10.0 mi WNW 20.7 mph 34.5 mph N/A   Overcast
2:52 PM 32.9 °F 20.7 °F 25.7 °F 75% 29.83 in 10.0 mi WNW 21.9 mph 29.9 mph N/A   Overcast
3:13 PM 33.3 °F 20.3 °F 25.0 °F 72% 29.84 in 10.0 mi WNW 25.3 mph 33.4 mph N/A   Overcast
3:32 PM 34.0 °F 22.7 °F 25.3 °F 71% 29.85 in 10.0 mi WNW 19.6 mph 32.2 mph N/A   Overcast
3:52 PM 34.7 °F 22.8 °F 25.2 °F 68% 29.86 in 10.0 mi WNW 23.0 mph 36.8 mph N/A   Overcast
4:13 PM 34.7 °F 23.1 °F 24.8 °F 67% 29.87 in 10.0 mi WNW 21.9 mph 31.1 mph N/A   Overcast
4:32 PM 34.7 °F 23.7 °F 25.7 °F 70% 29.88 in 10.0 mi WNW 19.6 mph 29.9 mph N/A   Overcast
4:52 PM 35.1 °F 23.0 °F 25.5 °F 68% 29.88 in 10.0 mi WNW 24.2 mph 31.1 mph N/A   Overcast
5:13 PM 36.0 °F 25.6 °F 25.5 °F 66% 29.89 in 10.0 mi WNW 18.4 mph 25.3 mph N/A   Mostly Cloudy
5:32 PM 36.5 °F 27.0 °F 25.2 °F 64% 29.90 in 10.0 mi WNW 16.1 mph 28.8 mph N/A   Scattered Clouds
5:52 PM 36.9 °F 26.8 °F 24.4 °F 61% 29.91 in 10.0 mi WNW 18.4 mph 29.9 mph N/A   Scattered Clouds
6:13 PM 37.4 °F 27.2 °F 24.4 °F 60% 29.92 in 10.0 mi WNW 19.6 mph 25.3 mph N/A   Scattered Clouds
6:32 PM 37.2 °F 27.9 °F 23.7 °F 58% 29.93 in 10.0 mi WNW 16.1 mph 27.6 mph N/A   Scattered Clouds
6:52 PM 37.0 °F 27.4 °F 23.7 °F 59% 29.93 in 10.0 mi WNW 17.3 mph 26.5 mph N/A   Clear
7:13 PM 36.9 °F 28.2 °F 23.9 °F 59% 29.94 in 10.0 mi WNW 13.8 mph 23.0 mph N/A   Clear
7:32 PM 36.5 °F 28.2 °F 23.9 °F 60% 29.95 in 10.0 mi WNW 12.7 mph - N/A   Clear
7:52 PM 36.0 °F 27.1 °F 23.9 °F 62% 29.96 in 10.0 mi WNW 13.8 mph 17.3 mph N/A   Clear
8:13 PM 35.6 °F 27.5 °F 23.9 °F 62% 29.97 in 10.0 mi WNW 11.5 mph - N/A   Clear
8:32 PM 35.8 °F 28.8 °F 23.9 °F 62% 29.99 in 10.0 mi West 9.2 mph - N/A   Clear
8:52 PM 35.2 °F 27.6 °F 24.3 °F 64% 30.00 in 10.0 mi West 10.4 mph - N/A   Clear
9:13 PM 34.7 °F 28.1 °F 24.8 °F 67% 30.00 in 10.0 mi West 8.1 mph - N/A   Clear
9:32 PM 34.5 °F 27.3 °F 25.3 °F 69% 30.02 in 10.0 mi West 9.2 mph - N/A   Clear
9:53 PM 34.2 °F 26.2 °F 25.5 °F 71% 30.02 in 10.0 mi West 10.4 mph - N/A   Clear
10:13 PM 33.6 °F 25.6 °F 26.8 °F 76% 30.02 in 10.0 mi West 10.4 mph 17.3 mph N/A   Clear
10:32 PM 33.3 °F 24.6 °F 28.2 °F 82% 30.03 in 10.0 mi West 11.5 mph - N/A   Clear
10:53 PM 33.3 °F 25.7 °F 28.4 °F 82% 30.03 in 10.0 mi West 9.2 mph - N/A   Clear
11:13 PM 33.1 °F 24.9 °F 28.2 °F 82% 30.04 in 10.0 mi West 10.4 mph - N/A   Clear
11:32 PM 33.1 °F 24.9 °F 28.2 °F 82% 30.04 in 10.0 mi West 10.4 mph - N/A   Clear
11:53 PM 32.7 °F 25.7 °F 28.0 °F 83% 30.04 in 10.0 mi West 8.1 mph - N/A   Clear